"2009-06-10 00:00:00",962226,2.518,73.44,3.983,0.096,14.47,107.2742,17.9,18.85,40.65,0,110.8,13.25,18.71,35.4
"2009-06-10 00:00:30",962227,2.556,87.5,6.241,0.146,14.55,107.2899,17.94,18.87,40.47,0,110.8,13.25,18.75,49.5
"2009-06-10 00:01:00",962228,3.038,81.2,6.009,0.281,14.49,107.2902,17.94,18.89,40.68,0,110.8,13.25,18.75,43.2
"2009-06-10 00:01:30",962229,3.505,79.95,4.715,0.285,14.45,107.3085,17.99,18.92,41.44,0,110.8,13.25,18.80,41.9
"2009-06-10 00:02:00",962230,3.48,79.2,6.325,0.243,14.6,107.318,18.01,18.93,42.28,0,110.8,13.25,18.83,41.2
"2009-06-10 00:02:30",962231,3.387,77.84,2.832,0.18,14.65,107.3231,18.02,18.96,42.68,0,110.8,13.24,18.84,39.8
"2009-06-10 00:03:00",962232,3.883,76.79,3.284,0.331,14.68,107.3237,18.03,18.98,42.62,0,110.8,13.24,18.84,38.8
"2009-06-10 00:03:30",962233,4.118,74.21,3.304,0.194,14.65,107.3237,18.03,18.99,42.58,0,110.8,13.24,18.84,36.2
"2009-06-10 00:04:00",962234,3.837,79.96,6.182,0.48,14.83,107.3228,18.02,19,41.98,0,110.8,13.24,18.84,42.0
"2009-06-10 00:04:30",962235,3.184,77.77,6.102,0.252,14.99,107.3231,18.02,19.01,41.55,0,110.8,13.24,18.84,39.8
"2009-06-10 00:05:00",962236,3.694,68.4,3.015,0.28,14.96,107.3211,18.02,19.02,40.92,0,110.8,13.24,18.83,30.4
"2009-06-10 00:05:30",962237,4.236,73.01,1.946,0.135,14.84,107.3121,18,19,40.58,0,110.8,13.24,18.81,35.0
"2009-06-10 00:06:00",962238,4.177,70.06,2.703,0.303,15.09,107.2958,17.95,18.98,40.43,0,110.8,13.23,18.77,32.1
"2009-06-10 00:06:30",962239,4.406,70.62,2.457,0.266,15.15,107.2893,17.94,18.98,40.08,0,110.8,13.23,18.75,32.6
"2009-06-10 00:07:00",962240,4.429,70.95,1.872,0.204,15.33,107.2899,17.94,18.96,39.82,0,110.8,13.24,18.75,32.9
"2009-06-10 00:07:30",962241,4.51,68.45,1.898,0.148,15.39,107.2702,17.89,18.95,39.74,0,110.8,13.24,18.70,30.4
"2009-06-10 00:08:00",962242,4.136,71.84,3.226,0.165,15.56,107.2561,17.85,18.94,39.67,0,110.8,13.24,18.67,33.8
"2009-06-10 00:08:30",962243,4.212,72.57,2.476,0.178,15.67,107.2488,17.83,18.92,39.63,0,110.8,13.24,18.65,34.6
"2009-06-10 00:09:00",962244,4.432,73.28,2.221,0.128,15.67,107.223,17.77,18.89,39.36,0,110.8,13.24,18.58,35.3
"2009-06-10 00:09:30",962245,4.937,72.91,4.173,0.336,15.7,107.2171,17.75,18.84,39.26,0,110.8,13.24,18.57,34.9
"2009-06-10 00:10:00",962246,5.01,77.32,2.623,0.182,15.84,107.1895,17.68,18.82,39.15,0,110.8,13.24,18.49,39.3
"2009-06-10 00:10:30",962247,5.292,80.8,1.443,0.332,15.71,107.1833,17.67,18.78,39.23,0,110.8,13.24,18.48,42.8
"2009-06-10 00:11:00",962248,6.096,83.1,1.166,0.104,15.57,107.1557,17.59,18.75,39.33,0,110.8,13.24,18.41,45.1
"2009-06-10 00:11:30",962249,6.323,83.9,1.123,0.163,15.43,107.1411,17.56,18.7,38.9,0,110.8,13.24,18.37,45.9
"2009-06-10 00:12:00",962250,6.54,83.5,1.173,0.135,15.39,107.1192,17.5,18.66,38.74,0,110.8,13.24,18.31,45.5
"2009-06-10 00:12:30",962251,6.492,84.2,0.651,0.123,15.55,107.0857,17.41,18.61,39.72,0,110.8,13.24,18.23,46.2
"2009-06-10 00:13:00",962252,6.702,84,0.686,0.107,15.76,107.0503,17.32,18.56,40.55,0,110.8,13.24,18.14,46.0
"2009-06-10 00:13:30",962253,6.541,82.2,0.665,0.062,15.64,107.0154,17.23,18.49,40.97,0,110.8,13.24,18.05,44.2
"2009-06-10 00:14:00",962254,6.512,82.5,1.211,0.146,15.68,106.9828,17.15,18.42,41.17,0,110.8,13.24,17.96,44.5
"2009-06-10 00:14:30",962255,6.488,82.2,1.031,0.148,15.72,106.9516,17.07,18.35,41.38,0,110.8,13.24,17.88,44.2
"2009-06-10 00:15:00",962256,6.568,78.72,1.276,0.134,15.51,106.9184,16.99,18.29,41.94,0,110.8,13.24,17.80,40.7
"2009-06-10 00:15:30",962257,6.541,78.04,3.652,0.418,15.23,106.8877,16.91,18.21,42.83,0,110.8,13.24,17.72,40.0
"2009-06-10 00:16:00",962258,7.003,80.5,1.769,0.228,15.27,106.8558,16.83,18.14,43.4,0,110.8,13.25,17.64,42.5
"2009-06-10 00:16:30",962259,7.186,81.1,2.779,0.306,15.63,106.8183,16.73,18.07,43.64,0,110.8,13.25,17.54,43.1
"2009-06-10 00:17:00",962260,7.011,80.1,3.406,0.361,15.83,106.7851,16.64,17.98,42.86,0,110.8,13.25,17.45,42.1
"2009-06-10 00:17:30",962261,7.551,73.96,4.553,0.366,15.25,106.7543,16.57,17.9,43.99,0,110.8,13.25,17.38,36.0
"2009-06-10 00:18:00",962262,9.05,64.79,2.276,0.437,14.64,106.7237,16.49,17.82,43.65,0,110.8,13.25,17.30,26.8
"2009-06-10 00:18:30",962263,8.84,62.28,3.793,0.406,14.62,106.687,16.39,17.74,43.51,0,110.8,13.25,17.20,24.3
"2009-06-10 00:19:00",962264,9.27,56.45,3.083,0.66,14.57,106.6405,16.27,17.64,42.86,0,110.8,13.21,17.08,18.5
"2009-06-10 00:19:30",962265,12.64,63.18,6.688,1.509,16.28,106.5788,16.12,17.75,43.26,0,110.8,13.21,16.92,25.2
"2009-06-10 00:20:00",962266,15.03,63.07,4.384,0.831,17.85,106.4796,15.86,17.76,44.07,0,110.7,13.21,16.67,25.1
"2009-06-10 00:20:30",962267,15.64,63.6,4.446,0.833,17.52,106.3589,15.55,17.56,44.36,0,110.7,13.2,16.36,25.6
"2009-06-10 00:21:00",962268,14.87,63.96,4.831,0.839,17.09,106.2356,15.24,17.34,44.86,0,110.7,13.2,16.04,26.0
"2009-06-10 00:21:30",962269,12.91,56.76,6.217,1.383,13.92,106.1242,14.95,16.84,44.95,0,110.7,13.2,15.76,18.8
"2009-06-10 00:22:00",962270,11.59,54.01,1.033,0.244,12.26,106.0328,14.72,16.54,45.96,0,110.7,13.24,15.52,16.0
"2009-06-10 00:22:30",962271,11.17,56.51,1.764,0.348,12.64,105.9521,14.51,16.33,46.71,0,110.7,13.24,15.31,18.5
"2009-06-10 00:23:00",962272,10.49,59.33,2.385,0.368,13.27,105.8879,14.35,16.11,47.66,0,110.7,13.24,15.15,21.3
"2009-06-10 00:23:30",962273,10.09,61.92,1.498,0.185,13.79,105.8345,14.21,15.94,48.44,0,110.7,13.24,15.01,23.9
"2009-06-10 00:24:00",962274,9.8,62.01,0.77,0.224,14.1,105.7931,14.1,15.79,49.16,0,110.7,13.25,14.90,24.0
"2009-06-10 00:24:30",962275,10.56,63.58,4.711,0.85,15.18,105.7607,14.02,15.74,49.43,0,110.7,13.22,14.82,25.6
"2009-06-10 00:25:00",962276,11.45,75.84,5.257,1.352,18.34,105.736,13.96,15.86,50.26,0,110.7,13.22,14.76,37.8
"2009-06-10 00:25:30",962277,11.64,78.56,5.502,1.151,18.24,105.7099,13.89,15.81,51.21,0,110.7,13.22,14.69,40.6
"2009-06-10 00:26:00",962278,10.72,74.75,6.912,1.279,16.38,105.7022,13.87,15.6,51.55,0,110.7,13.23,14.67,36.8
"2009-06-10 00:26:30",962279,10.76,74.58,7.77,1.261,15.61,105.6813,13.82,15.38,51.57,0,110.7,13.23,14.62,36.6
"2009-06-10 00:27:00",962280,9.82,67.98,1.317,0.153,12.99,105.6858,13.83,15.25,51.55,0,110.7,13.26,14.63,30.0
"2009-06-10 00:27:30",962281,9.8,67.45,1.14,0.255,12.96,105.6768,13.8,15.19,51.65,0,110.6,13.26,14.61,29.4
"2009-06-10 00:28:00",962282,10.2,66.73,1.263,0.187,13.4,105.6654,13.78,15.13,51.76,0,110.6,13.27,14.58,28.7
"2009-06-10 00:28:30",962283,10.63,66.43,1.002,0.207,13.63,105.672,13.79,15.07,51.77,0,110.7,13.27,14.59,28.4
"2009-06-10 00:29:00",962284,11.06,64.62,0.949,0.113,13.83,105.6735,13.8,15.04,51.59,0,110.6,13.27,14.60,26.6
"2009-06-10 00:29:30",962285,12.7,71.08,6.578,1.371,16.66,105.6574,13.76,15.18,51.72,0,110.6,13.23,14.56,33.1
"2009-06-10 00:30:00",962286,13.58,69.34,5.259,1.265,17.1,105.64,13.71,15.29,51.95,0,110.6,13.23,14.51,31.3
"2009-06-10 00:30:30",962287,13.34,65.94,6.933,1.4,16.02,105.6268,13.68,15.23,52.11,0,110.6,13.23,14.48,27.9
"2009-06-10 00:31:00",962288,12.14,62.45,5.687,1.208,13.97,105.6048,13.62,14.99,52.01,0,110.6,13.23,14.42,24.5
"2009-06-10 00:31:30",962289,12.23,64.61,6.975,1.075,14.26,105.5775,13.55,14.98,52.16,0,110.6,13.23,14.35,26.6
"2009-06-10 00:32:00",962290,11.51,62,1.939,0.293,12.82,105.5601,13.51,14.76,52.16,0,110.6,13.27,14.31,24.0
"2009-06-10 00:32:30",962291,11.26,63.63,1.381,0.457,13.28,105.5387,13.45,14.7,52.44,0,110.6,13.27,14.25,25.6
"2009-06-10 00:33:00",962292,11.27,64.54,1.216,0.298,13.73,105.5347,13.44,14.67,52.52,0,110.6,13.27,14.24,26.5
"2009-06-10 00:33:30",962293,11.06,67.95,4.506,0.668,15.17,105.5106,13.38,14.79,52.83,0,110.6,13.24,14.18,29.9
"2009-06-10 00:34:00",962294,13.19,76.38,6.804,0.974,18.23,105.509,13.38,14.8,53.02,0,110.6,13.24,14.17,38.4
"2009-06-10 00:34:30",962295,13.29,72.9,5.604,1.141,17.74,105.5177,13.4,14.85,53.17,0,110.6,13.24,14.20,34.9
"2009-06-10 00:35:00",962296,12.52,65.85,6.591,1.351,15.39,105.5242,13.41,14.75,53.12,0,110.6,13.24,14.21,27.8
"2009-06-10 00:35:30",962297,12.56,66.49,6.573,1.315,15.46,105.5293,13.43,14.7,53.19,0,110.6,13.23,14.23,28.5
"2009-06-10 00:36:00",962298,11.86,59.46,2.674,0.698,12.89,105.5167,13.4,14.51,53.12,0,110.6,13.24,14.19,21.5
"2009-06-10 00:36:30",962299,11.74,59.46,0.754,0.286,13,105.5068,13.37,14.46,53.2,0,110.6,13.27,14.17,21.5
"2009-06-10 00:37:00",962300,13.03,64.06,6.873,1.3,14.81,105.5065,13.37,14.45,53.31,0,110.5,13.23,14.17,26.1
"2009-06-10 00:37:30",962301,12.32,62.66,5.541,1.166,14.16,105.4913,13.33,14.53,53.59,0,110.5,13.23,14.13,24.7
"2009-06-10 00:38:00",962302,14.12,72.14,5.323,0.994,17.71,105.473,13.28,14.63,53.84,0,110.5,13.23,14.08,34.1
"2009-06-10 00:38:30",962303,12.85,68,6.538,1.362,16.28,105.473,13.28,14.6,53.96,0,110.5,13.24,14.08,30.0
"2009-06-10 00:39:00",962304,12.55,63.65,6.503,1.213,14.64,105.4648,13.26,14.41,53.85,0,110.5,13.24,14.06,25.7
"2009-06-10 00:39:30",962305,12.54,63.36,6.229,1.293,14.17,105.4437,13.21,14.33,53.89,0,110.5,13.23,14.01,25.4
"2009-06-10 00:40:00",962306,13,65.76,6.78,1.363,15.38,105.4392,13.2,14.47,54.12,0,110.5,13.24,13.99,27.8
"2009-06-10 00:40:30",962307,11.67,58.86,0.388,0.086,13,105.4336,13.18,14.25,54,0,110.5,13.27,13.98,20.9
"2009-06-10 00:41:00",962308,12.86,64.61,6.843,1.373,15.21,105.4076,13.12,14.39,54.2,0,110.5,13.25,13.91,26.6
"2009-06-10 00:41:30",962309,13.22,67.54,7.182,1.188,16.33,105.4054,13.11,14.43,54.31,0,110.5,13.25,13.91,29.5
"2009-06-10 00:42:00",962310,13.59,68.91,6.68,1.178,17.38,105.4041,13.11,14.46,54.26,0,110.5,13.25,13.90,30.9
"2009-06-10 00:42:30",962311,12.95,65.13,6.842,1.31,15.16,105.3881,13.07,14.31,54.19,0,110.5,13.25,13.86,27.1
"2009-06-10 00:43:00",962312,11.67,58.54,0.45,0.07,12.71,105.3811,13.05,14.14,54.08,0,110.5,13.28,13.85,20.5
"2009-06-10 00:43:30",962313,12.55,63.19,6.681,1.374,14.71,105.3867,13.06,14.31,54.23,0,110.5,13.25,13.86,25.2
"2009-06-10 00:44:00",962314,12.32,60.73,4.702,1.077,13.44,105.3906,13.07,14.16,54.06,0,110.5,13.25,13.87,22.7
"2009-06-10 00:44:30",962315,12.04,58.91,0.555,0.301,13.34,105.3763,13.04,14.16,54.17,0,110.5,13.29,13.83,20.9
"2009-06-10 00:45:00",962316,13.62,67.85,6.798,1.248,16.49,105.3725,13.03,14.27,54.16,0,110.4,13.25,13.82,29.8
"2009-06-10 00:45:30",962317,14.99,71.76,5.194,0.804,17.16,105.3734,13.03,14.32,54.67,0,110.5,13.25,13.83,33.8
"2009-06-10 00:46:00",962318,14.14,68.39,6.502,1.261,16.09,105.3644,13.01,14.28,54.83,0,110.5,13.25,13.80,30.4
"2009-06-10 00:46:30",962319,12.87,62.13,2.596,0.215,12.73,105.3408,12.94,14.09,55.19,0,110.5,13.29,13.74,24.1
"2009-06-10 00:47:00",962320,14.31,69.01,6.606,1.207,14.22,105.3394,12.94,14.01,55.16,0,110.5,13.25,13.74,31.0
"2009-06-10 00:47:30",962321,14.17,67.67,6.546,1.69,14.39,105.3154,12.88,14.16,55.42,0,110.4,13.26,13.68,29.7
"2009-06-10 00:48:00",962322,16,71.93,6.471,1.615,15.13,105.3058,12.86,14.08,56.17,0,110.5,13.26,13.65,33.9
"2009-06-10 00:48:30",962323,16.06,73.37,6.794,1.407,15.05,105.2816,12.79,14.14,56.21,0,110.5,13.26,13.59,35.4
"2009-06-10 00:49:00",962324,16.72,76.93,5.817,1.161,16.08,105.2644,12.75,14.15,56.53,0,110.4,13.26,13.55,38.9
"2009-06-10 00:49:30",962325,16.8,76.16,6.409,1.273,15.96,105.2383,12.68,14.09,56.63,0,110.4,13.26,13.48,38.2
"2009-06-10 00:50:00",962326,16.03,68.98,6.984,1.165,13.21,105.2143,12.62,13.79,57.34,0,110.5,13.26,13.42,31.0
"2009-06-10 00:50:30",962327,14.94,68.12,3.774,0.872,12.66,105.1856,12.55,13.83,57.63,0,110.4,13.26,13.34,30.1
"2009-06-10 00:51:00",962328,16.49,76.05,6.866,1.267,15.96,105.1631,12.49,13.91,57.56,0,110.4,13.26,13.29,38.1
"2009-06-10 00:51:30",962329,16,75.24,6.591,1.315,16.31,105.1381,12.43,13.87,57.56,0,110.4,13.26,13.22,37.2
"2009-06-10 00:52:00",962330,16.31,77.35,5.55,1.102,16.6,105.1182,12.37,13.85,57.34,0,110.4,13.26,13.17,39.3
"2009-06-10 00:52:30",962331,16.42,75.65,6.162,1.163,16.01,105.1117,12.36,13.79,57.6,0,110.4,13.26,13.15,37.7
"2009-06-10 00:53:00",962332,14.95,71.09,5.981,1.254,14.13,105.0933,12.31,13.64,57.77,0,110.4,13.25,13.11,33.1
"2009-06-10 00:53:30",962333,14.86,67.8,5.19,1.061,12.83,105.0959,12.32,13.45,57.83,0,110.4,13.25,13.11,29.8
"2009-06-10 00:54:00",962334,14.52,69.78,7.781,0.942,14.02,105.0901,12.3,13.52,57.95,0,110.4,13.25,13.10,31.8
"2009-06-10 00:54:30",962335,15.08,72.69,5.359,1.718,15.4,105.0712,12.25,13.64,57.96,0,110.4,13.26,13.05,34.7
"2009-06-10 00:55:00",962336,15.5,75.35,6.47,1.177,16.43,105.0707,12.25,13.61,57.9,0,110.4,13.26,13.05,37.3
"2009-06-10 00:55:30",962337,15.01,72.65,6.176,1.271,15.54,105.071,12.25,13.6,58.2,0,110.4,13.26,13.05,34.7
"2009-06-10 00:56:00",962338,15.07,72.69,6.311,1.254,15.5,105.0699,12.25,13.46,58.17,0,110.4,13.26,13.05,34.7
"2009-06-10 00:56:30",962339,13.65,66.21,3.988,0.737,13.02,105.0606,12.23,13.42,58.24,0,110.4,13.26,13.02,28.2
"2009-06-10 00:57:00",962340,13.28,64.08,0.932,0.201,12.45,105.0524,12.21,13.26,58.12,0,110.4,13.29,13.00,26.1
"2009-06-10 00:57:30",962341,14.99,72.38,6.448,1.243,15.66,105.038,12.17,13.43,58.56,0,110.4,13.26,12.96,34.4
"2009-06-10 00:58:00",962342,14.72,73.78,6.845,1.204,16.38,105.0372,12.17,13.55,58.56,0,110.4,13.27,12.96,35.8
"2009-06-10 00:58:30",962343,14.29,72.21,6.511,1.288,15.2,105.0372,12.17,13.35,58.4,0,110.4,13.27,12.96,34.2
"2009-06-10 00:59:00",962344,13.97,73.33,6.803,1.315,15.3,105.0372,12.17,13.41,58.48,0,110.4,13.27,12.96,35.3
"2009-06-10 00:59:30",962345,13.35,69.24,5.75,1.425,13.76,105.0372,12.17,13.26,58.49,0,110.4,13.27,12.96,31.2
"2009-06-10 01:00:00",962346,13.84,69.27,6.552,1.422,14.47,105.0372,12.17,13.3,58.6,0,110.4,13.27,12.96,31.3
"2009-06-10 01:00:30",962347,14.22,68.86,6.73,1.335,14.42,105.0372,12.17,13.24,58.87,0,110.4,13.27,12.96,30.9
"2009-06-10 01:01:00",962348,14.64,72.49,6.275,1.329,15.73,105.0375,12.17,13.38,59.18,0,110.4,13.27,12.96,34.5
"2009-06-10 01:01:30",962349,15.13,76.31,4.873,1.187,16.61,105.0387,12.17,13.51,59.37,0,110.4,13.27,12.97,38.3
"2009-06-10 01:02:00",962350,15.46,76.87,5.455,1.129,15.97,105.0359,12.16,13.38,59.43,0,110.4,13.27,12.96,38.9
"2009-06-10 01:02:30",962351,14.64,72.27,7.011,1.4,15.15,105.0262,12.14,13.4,59.58,0,110.4,13.27,12.93,34.3
"2009-06-10 01:03:00",962352,13.55,67.04,5.239,1.043,13.06,105.0148,12.11,13.28,59.62,0,110.4,13.27,12.90,29.0
"2009-06-10 01:03:30",962353,13.95,68.99,5.872,1.169,13.79,105.0137,12.11,13.18,59.56,0,110.4,13.27,12.90,31.0
"2009-06-10 01:04:00",962354,14.48,72.95,6.642,1.34,14.58,105.0202,12.12,13.36,59.69,0,110.4,13.28,12.92,34.9
"2009-06-10 01:04:30",962355,15.03,76.26,6.457,1.221,15.87,105.0253,12.14,13.44,59.75,0,110.4,13.28,12.93,38.3
"2009-06-10 01:05:00",962356,15.15,79.81,4.592,1.074,16.36,105.0162,12.11,13.42,59.79,0,110.4,13.28,12.91,41.8
"2009-06-10 01:05:30",962357,14.92,75.68,6.835,1.383,14.94,105.0038,12.08,13.26,59.63,0,110.4,13.28,12.88,37.7
"2009-06-10 01:06:00",962358,13.92,74.21,6.721,1.271,14.24,105.0051,12.09,13.23,59.57,0,110.4,13.28,12.88,36.2
"2009-06-10 01:06:30",962359,13.44,71.92,6.017,1.105,13.57,105.0037,12.08,13.22,59.7,0,110.4,13.28,12.88,33.9
"2009-06-10 01:07:00",962360,12.87,68.56,0.319,0.112,12.32,104.9879,12.04,13.12,59.58,0,110.4,13.28,12.84,30.6
"2009-06-10 01:07:30",962361,14.46,77.75,6.239,1.295,15.77,104.9712,12,13.24,59.76,0,110.4,13.28,12.79,39.8
"2009-06-10 01:08:00",962362,14.44,77.65,6.346,1.201,16.18,104.9712,12,13.3,60.06,0,110.4,13.28,12.79,39.7
"2009-06-10 01:08:30",962363,14.34,76.59,6.489,1.267,15.41,104.9712,12,13.25,60.08,0,110.4,13.28,12.79,38.6
"2009-06-10 01:09:00",962364,13.86,74.58,6.479,1.225,14,104.967,11.99,13.21,59.96,0,110.4,13.28,12.78,36.6
"2009-06-10 01:09:30",962365,13.18,70.68,4.728,1.141,12.84,104.9521,11.95,13.08,59.86,0,110.4,13.28,12.74,32.7
"2009-06-10 01:10:00",962366,13.72,75.48,6.345,1.234,14.64,104.9374,11.91,13.14,60.1,0,110.4,13.28,12.71,37.5
"2009-06-10 01:10:30",962367,13.55,74.31,6.861,1.374,14.18,104.9374,11.91,13,59.94,0,110.4,13.28,12.71,36.3
"2009-06-10 01:11:00",962368,13.98,76.59,6.602,1.392,15.54,104.9374,11.91,13.23,60.35,0,110.4,13.28,12.71,38.6
"2009-06-10 01:11:30",962369,14.5,79.91,5.791,1.113,16.17,104.9374,11.91,13.13,60.27,0,110.4,13.28,12.71,41.9
"2009-06-10 01:12:00",962370,14.8,79.88,5.748,1.303,15.59,104.9357,11.91,13.18,60.24,0,110.4,13.28,12.70,41.9
"2009-06-10 01:12:30",962371,13.88,74.35,6.551,1.364,13.63,104.9267,11.88,12.94,60,0,110.3,13.28,12.68,36.3
"2009-06-10 01:13:00",962372,14.43,79.63,6.093,1.258,15.48,104.9084,11.84,13.08,60.15,0,110.4,13.28,12.63,41.6
"2009-06-10 01:13:30",962373,13.93,78.31,6.498,1.264,15.65,104.9036,11.83,13.14,60.22,0,110.3,13.28,12.62,40.3
"2009-06-10 01:14:00",962374,12.38,70.58,3.366,0.802,12.73,104.9036,11.83,12.99,60.2,0,110.3,13.28,12.62,32.6
"2009-06-10 01:14:30",962375,13.19,75.43,6.899,1.298,14.79,104.9039,11.83,13.1,60.36,0,110.3,13.28,12.62,37.4
"2009-06-10 01:15:00",962376,13.91,78.36,6.194,1.15,16.08,104.9042,11.83,13.08,60.39,0,110.3,13.29,12.62,40.4
"2009-06-10 01:15:30",962377,12.33,70.82,5.033,0.989,12.89,104.9083,11.84,12.97,60.27,0,110.3,13.29,12.63,32.8
"2009-06-10 01:16:00",962378,12.58,71,6.931,1.301,13.94,104.9102,11.84,12.88,60.35,0,110.3,13.29,12.64,33.0
"2009-06-10 01:16:30",962379,13.07,74.98,6.456,1.277,15.76,104.9123,11.85,13.08,60.77,0,110.3,13.29,12.64,37.0
"2009-06-10 01:17:00",962380,11.77,67.19,4.949,0.985,12.9,104.9199,11.87,12.92,60.67,0,110.3,13.29,12.66,29.2
"2009-06-10 01:17:30",962381,12.89,72.8,6.436,1.317,14.97,104.922,11.87,12.94,60.73,0,110.3,13.29,12.67,34.8
"2009-06-10 01:18:00",962382,11.98,68.81,6.058,1.115,13.83,104.9276,11.89,12.97,60.81,0,110.3,13.29,12.68,30.8
"2009-06-10 01:18:30",962383,11.92,69.36,5.495,1.212,13.81,104.9302,11.89,12.99,60.79,0,110.3,13.29,12.69,31.4
"2009-06-10 01:19:00",962384,12.32,74.55,7.039,1.262,15.14,104.9329,11.9,13.05,60.78,0,110.3,13.29,12.69,36.6
"2009-06-10 01:19:30",962385,12.5,74.52,6.356,1.191,15.54,104.9361,11.91,13.06,60.74,0,110.3,13.29,12.70,36.5
"2009-06-10 01:20:00",962386,12.32,74.9,6.935,1.341,15.22,104.9382,11.91,13.06,60.74,0,110.3,13.29,12.71,36.9
"2009-06-10 01:20:30",962387,11.65,72.88,6.783,1.178,14.3,104.9382,11.91,13.01,60.69,0,110.3,13.3,12.71,34.9
"2009-06-10 01:21:00",962388,11,70.42,4.644,0.84,12.99,104.9388,11.92,13.02,60.67,0,110.3,13.3,12.71,32.4
"2009-06-10 01:21:30",962389,11.73,72.78,6.129,1.182,13.71,104.9445,11.93,12.94,60.6,0,110.3,13.3,12.72,34.8
"2009-06-10 01:22:00",962390,11.21,69.61,5.351,1.092,13.35,104.9512,11.95,13.04,60.63,0,110.3,13.3,12.74,31.6
"2009-06-10 01:22:30",962391,12.08,73.97,6.622,1.267,15.3,104.96,11.97,13.06,60.54,0,110.3,13.3,12.76,36.0
"2009-06-10 01:23:00",962392,12.45,75.91,6.116,1.255,16.57,104.9673,11.99,13.13,60.41,0,110.3,13.3,12.78,37.9
"2009-06-10 01:23:30",962393,12.54,75.6,5.758,1.246,16.24,104.9729,12,13.16,60.32,0,110.3,13.3,12.80,37.6
"2009-06-10 01:24:00",962394,10.67,64.39,0.534,0.069,12.34,104.9729,12,12.98,60.07,0,110.3,13.33,12.80,26.4
"2009-06-10 01:24:30",962395,11.18,65.13,5.029,1.013,12.93,104.9729,12,12.96,59.91,0,110.3,13.3,12.80,27.1
"2009-06-10 01:25:00",962396,12.04,67.61,6.322,1.274,14.51,104.9729,12,13.05,59.86,0,110.3,13.3,12.80,29.6
"2009-06-10 01:25:30",962397,12.21,67.24,6.624,1.389,14.48,104.9865,12.04,13,59.69,0,110.3,13.3,12.83,29.2
"2009-06-10 01:26:00",962398,11.56,63.48,5.498,1.097,14,105.0031,12.08,13.16,59.82,0,110.3,13.3,12.87,25.5
"2009-06-10 01:26:30",962399,12.77,71.19,6.151,1.236,16.34,105.0068,12.09,13.18,59.77,0,110.3,13.29,12.88,33.2
"2009-06-10 01:27:00",962400,12.59,72.12,5.728,1.232,16.26,105.0068,12.09,13.24,59.65,0,110.3,13.29,12.88,34.1
"2009-06-10 01:27:30",962401,11.03,64.43,4.277,1.035,12.96,105.0141,12.11,13.08,59.37,0,110.3,13.29,12.90,26.4
"2009-06-10 01:28:00",962402,11.67,67.33,6.006,1.356,14.27,105.0347,12.16,13.16,59.38,0,110.3,13.29,12.96,29.3
"2009-06-10 01:28:30",962403,11.2,64.24,5.897,0.932,13.61,105.0406,12.18,13.19,59.32,0,110.3,13.29,12.97,26.2
"2009-06-10 01:29:00",962404,10.74,64.7,4.696,1.048,13.08,105.0406,12.18,13.07,59.03,0,110.3,13.29,12.97,26.7
"2009-06-10 01:29:30",962405,10.33,64.87,2.477,0.488,12.9,105.0409,12.18,13.24,59.16,0,110.3,13.29,12.97,26.9
"2009-06-10 01:30:00",962406,12.39,74.81,5.521,1.022,17.07,105.0414,12.18,13.4,59.34,0,110.3,13.29,12.97,36.8
"2009-06-10 01:30:30",962407,12.01,72.57,6.38,1.274,15.78,105.0423,12.18,13.38,59.23,0,110.3,13.3,12.98,34.6
"2009-06-10 01:31:00",962408,11.18,69.79,6.429,1.195,14.23,105.0412,12.18,13.26,59.14,0,110.3,13.3,12.97,31.8
"2009-06-10 01:31:30",962409,11.12,69.6,6.48,1.331,13.65,105.0409,12.18,13.24,59.16,0,110.3,13.3,12.97,31.6
"2009-06-10 01:32:00",962410,11.01,69.58,6.456,1.268,14.02,105.0406,12.18,13.28,59.24,0,110.3,13.3,12.97,31.6
"2009-06-10 01:32:30",962411,10.04,64.81,0.368,0.06,12.24,105.0406,12.18,13.13,58.94,0,110.3,13.34,12.97,26.8
"2009-06-10 01:33:00",962412,9.83,65.3,2.509,0.067,12.8,105.0406,12.18,13.28,59.11,0,110.3,13.34,12.97,27.3
"2009-06-10 01:33:30",962413,11.99,77.01,4.722,1.088,16.79,105.04,12.17,13.45,59.33,0,110.3,13.3,12.97,39.0
"2009-06-10 01:34:00",962414,11.83,74.72,6.147,1.182,15.89,105.0324,12.16,13.42,59.34,0,110.3,13.3,12.95,36.7
"2009-06-10 01:34:30",962415,10.83,69.77,6.45,1.206,14,105.0141,12.11,13.31,59.27,0,110.3,13.3,12.90,31.8
"2009-06-10 01:35:00",962416,10.51,67.99,5.225,1.092,13.03,105.0068,12.09,13.21,59.21,0,110.3,13.3,12.88,30.0
"2009-06-10 01:35:30",962417,11.06,70.33,6.748,1.242,13.74,105.0071,12.09,13.19,59.23,0,110.3,13.3,12.88,32.3
"2009-06-10 01:36:00",962418,10.17,64.34,0.532,0.057,12.05,105.0085,12.09,13.1,59.23,0,110.3,13.34,12.89,26.3
"2009-06-10 01:36:30",962419,10.32,64.14,0.486,0.479,12.4,105.0088,12.1,13.1,59.29,0,110.3,13.31,12.89,26.1
"2009-06-10 01:37:00",962420,11.84,72.47,6.332,1.28,15.92,105.0079,12.09,13.4,59.58,0,110.3,13.31,12.89,34.5
"2009-06-10 01:37:30",962421,12.4,74.87,5.207,1.024,16.88,105.0101,12.1,13.35,59.51,0,110.3,13.31,12.89,36.9
"2009-06-10 01:38:00",962422,11.22,69.56,6.654,1.294,14.53,105.0069,12.09,13.3,59.38,0,110.3,13.31,12.88,31.6
"2009-06-10 01:38:30",962423,10.6,65.97,4.928,0.963,12.97,105.0057,12.09,13.21,59.25,0,110.3,13.31,12.88,28.0
"2009-06-10 01:39:00",962424,10.55,66.81,5.669,1.231,13.09,105.0042,12.08,13.1,59.11,0,110.3,13.31,12.88,28.8
"2009-06-10 01:39:30",962425,9.92,64.09,0.454,0.114,12.23,105.0053,12.09,13.07,59.04,0,110.3,13.34,12.88,26.1
"2009-06-10 01:40:00",962426,10.28,66.53,4.677,0.884,13.11,105.0039,12.08,13.09,59.13,0,110.3,13.31,12.88,28.5
"2009-06-10 01:40:30",962427,11.79,75.23,5.83,1.199,16.35,105.0018,12.08,13.3,59.4,0,110.3,13.31,12.87,37.2
"2009-06-10 01:41:00",962428,12.24,76.98,3.988,0.807,17.27,105,12.07,13.4,59.48,0,110.3,13.31,12.87,39.0
"2009-06-10 01:41:30",962429,11.75,71.1,6.607,1.332,15.26,104.9909,12.05,13.33,59.68,0,110.3,13.31,12.84,33.1
"2009-06-10 01:42:00",962430,11.65,71.3,6.627,1.296,14.73,104.9883,12.04,13.27,59.74,0,110.3,13.31,12.84,33.3
"2009-06-10 01:42:30",962431,10.54,66.07,4.989,1.085,12.46,104.9874,12.04,13.07,59.52,0,110.3,13.3,12.83,28.1
"2009-06-10 01:43:00",962432,9.92,63.58,0.476,0.114,12.06,104.9865,12.04,13.07,59.42,0,110.3,13.34,12.83,25.6
"2009-06-10 01:43:30",962433,9.85,63.91,0.53,0.056,12.5,104.9865,12.04,13.06,59.36,0,110.3,13.34,12.83,25.9
"2009-06-10 01:44:00",962434,11.95,73.83,6.241,1.18,16.29,104.9928,12.05,13.3,59.56,0,110.3,13.3,12.85,35.8
"2009-06-10 01:44:30",962435,12.24,76.54,4.849,1.019,17.45,104.9934,12.06,13.3,59.45,0,110.3,13.3,12.85,38.5
"2009-06-10 01:45:00",962436,11.35,72.83,6.878,1.317,15.29,104.9948,12.06,13.2,59.32,0,110.3,13.3,12.85,34.8
"2009-06-10 01:45:30",962437,11.72,76.23,5.723,1.052,16.1,104.9963,12.06,13.23,59.4,0,110.3,13.3,12.86,38.2
"2009-06-10 01:46:00",962438,9.91,66.17,3.568,0.789,12.28,104.9981,12.07,13.04,59.24,0,110.3,13.3,12.86,28.2
"2009-06-10 01:46:30",962439,9.82,64.71,0.468,0.097,12.17,105.0002,12.07,13.02,59.17,0,110.3,13.34,12.87,26.7
"2009-06-10 01:47:00",962440,10.5,67.7,5.595,1.103,13.48,105.0025,12.08,13.07,59.15,0,110.3,13.3,12.87,29.7
"2009-06-10 01:47:30",962441,11.46,72.9,6.89,1.308,15.48,105.0034,12.08,13.15,59.15,0,110.3,13.31,12.88,34.9
"2009-06-10 01:48:00",962442,12.16,77.3,5.099,0.934,16.92,105.0049,12.08,13.28,59.1,0,110.3,13.31,12.88,39.3
"2009-06-10 01:48:30",962443,11.56,75.13,6.614,1.277,15.54,105.0052,12.09,13.22,59.04,0,110.3,13.31,12.88,37.1